Location: CNYAC Observatory
(43.2150°N, 74.9500°W)
Time: 05:29:41
(UTC-04:00)

Cosmos 1975 Rocket - Visible Passes

Search period start: 19 April 2015 00:00
Search period end: 29 April 2015 00:00
Orbit: 605 x 635 km, 82.5° (Epoch: 18 April)

Date Brightness Start Highest point End Pass type
(mag) Time Alt. Az. Time Alt. Az. Time Alt. Az.
19 Apr 5.2 21:03:54 12° ENE 21:03:54 12° ENE 21:05:03 10° ENE visible
19 Apr 3.5 22:41:02 62° NW 22:41:02 62° NW 22:45:08 10° N visible
20 Apr 4.4 21:20:48 21° E 21:20:48 21° E 21:24:08 10° NE visible
20 Apr 4.4 22:57:56 34° W 22:58:24 35° WNW 23:02:30 10° N visible
21 Apr 3.6 21:37:38 37° ESE 21:38:08 38° E 21:42:19 10° NNE visible
21 Apr 5.3 23:14:46 17° W 23:16:15 20° WNW 23:19:31 10° NNW visible
22 Apr 3.0 21:54:24 45° SSE 21:55:41 73° E 22:00:08 10° NNE visible
22 Apr 6.0 23:32:38 10° W 23:34:14 11° WNW 23:35:35 10° NW visible
23 Apr 5.0 20:34:00 10° ESE 20:35:52 13° E 20:37:57 10° ENE visible
23 Apr 3.5 22:11:04 28° SSW 22:13:18 60° W 22:17:43 10° N visible
24 Apr 4.3 20:50:32 13° SE 20:53:16 23° E 20:56:49 10° NE visible
24 Apr 4.7 22:27:38 14° SW 22:31:02 32° WNW 22:35:02 10° N visible
25 Apr 3.5 21:06:59 12° SSE 21:10:44 41° E 21:14:57 10° NNE visible
25 Apr 5.6 22:45:40 10° WSW 22:48:53 19° WNW 22:51:59 10° NNW visible
26 Apr 3.0 21:23:49 10° S 21:28:17 79° E 21:32:44 10° N visible
26 Apr 6.2 23:05:52 10° WNW 23:06:53 10° WNW 23:07:37 10° NW visible
27 Apr 3.8 21:41:31 10° SSW 21:45:54 55° W 21:50:17 10° N visible
28 Apr 4.2 20:22:16 10° SE 20:25:50 25° E 20:29:29 10° NE visible
28 Apr 5.0 21:59:41 10° SW 22:03:39 30° WNW 22:07:33 10° NNW visible
